Location: Martz Observatory
(42.0083°N, 79.0667°W)
Time: 21:04:56
(UTC-04:00)

Aureole 1 Rocket - Pass Details

Date: 26 May 2018
Orbit: 379 x 1390 km, 73.9° (Epoch: 18 June)

Event Time Altitude Azimuth Distance (km) Brightness Sun altitude
Exits shadow 02:50:30 42° 6° (N) 587 3.4 -23.0°
Drops below altitude 10° 02:52:35 10° 16° (NNE) 1,415 6.0 -22.8°
Sets 02:54:31 0° 19° (NNE) 2,262 7.4 -22.7°
